Regional Weather Roundup
Issued by NWS

Home | Current Version | Previous Version | Text Only | Print | Product List | Glossary Off
Versions: 1 2 3 4 5 6 7 8 9 10 11 12 13 14 15 16 17 18 19 20 21 22 23 24 25 26 27 28 29 30 31 32 33 34 35 36 37 38 39 40 41 42 43 44 45 46 47 48 49 50

000
ASUS43 KOAX 160602
RWRNE

WEATHER ROUNDUP FOR NEBRASKA
NATIONAL WEATHER SERVICE OMAHA NE
100 AM CDT MON OCT 16 2017

NOTES: SATELLITE DATA IS BEING USED TO AUGMENT CLOUD COVER ABOVE
       12000 FEET.
       "FAIR" INDICATES FEW OR NO CLOUDS BELOW 12,000 FEET WITH NO
       SIGNIFICANT WEATHER AND/OR OBSTRUCTIONS TO VISIBILITY.


NEZ001>004-019>022-054>056-160700-
NEBRASKA PANHANDLE

CITY           SKY/WX    TMP DP  RH WIND       PRES   REMARKS
SCOTTSBLUFF    CLEAR     35  27  72 E8        30.32F WCI  29
6HR MIN TEMP:  35; 6HR MAX TEMP:  60;

ALLIANCE       CLEAR     33  25  72 S5        30.31F WCI  29
6HR MIN TEMP:  30; 6HR MAX TEMP:  56;

CHADRON        CLEAR     30  25  81 CALM      30.28F
6HR MIN TEMP:  28; 6HR MAX TEMP:  57;

GORDON         FAIR      31  27  85 CALM      30.30F
6HR MIN TEMP:  30; 6HR MAX TEMP:  55;

KIMBALL        CLOUDY    35  26  72 W7        30.37F WCI  29
SIDNEY         CLOUDY    32  25  75 SW5       30.36F WCI  27
6HR MIN TEMP:  29; 6HR MAX TEMP:  56;

$$

NEZ057>060-069>072-079>082-160700-
SOUTHWEST NEBRASKA

CITY           SKY/WX    TMP DP  RH WIND       PRES   REMARKS
NORTH PLATTE   CLEAR     35  30  82 CALM      30.36S
6HR MIN TEMP:  33; 6HR MAX TEMP:  55;

IMPERIAL       CLEAR     36  29  75 CALM      30.37F
6HR MIN TEMP:  34; 6HR MAX TEMP:  60;

LEXINGTON      CLEAR     37  33  83 N3        30.37S
MCCOOK         CLEAR     38  31  76 W5        30.37F WCI  34
6HR MIN TEMP:  37; 6HR MAX TEMP:  58;

OGALLALA       CLEAR     33  29  85 CALM      30.36F
$$

NEZ005>010-023>029-035>040-094-160700-
NORTH CENTRAL NEBRASKA

CITY           SKY/WX    TMP DP  RH WIND       PRES   REMARKS
VALENTINE      CLEAR     33  29  85 SW3       30.31F
6HR MIN TEMP:  32; 6HR MAX TEMP:  56;

AINSWORTH      CLEAR     35  31  87 S3        30.32S
BROKEN BOW     CLEAR     33  30  88 CALM      30.35F
6HR MIN TEMP:  32; 6HR MAX TEMP:  51;

O`NEILL        CLEAR     40  36  84 CALM      30.32F
ORD            CLEAR     34  30  85 CALM      30.33F
6HR MIN TEMP:  32; 6HR MAX TEMP:  53;

THEDFORD       CLEAR     42  31  64 SW9       30.34F
$$

NEZ041-046>049-061>064-073>077-083>087-160700-
SOUTH CENTRAL NEBRASKA

CITY           SKY/WX    TMP DP  RH WIND       PRES   REMARKS
GRAND ISLAND   CLEAR     42  39  89 S3        30.37S
6HR MIN TEMP:  39; 6HR MAX TEMP:  58;

AURORA         CLEAR     38  34  86 W5        30.36S WCI  34
HASTINGS       CLEAR     39  34  82 CALM      30.37S
6HR MIN TEMP:  39; 6HR MAX TEMP:  57;

HEBRON         CLEAR     38  36  92 CALM      30.37S
HOLDREGE       CLEAR     39  31  71 CALM      30.36F
KEARNEY        CLEAR     40  33  76 NW5       30.37S
YORK           CLEAR     39  36  87 CALM      30.36F
$$

NEZ011>018-030>034-042>045-160700-
NORTHEAST NEBRASKA

CITY           SKY/WX    TMP DP  RH WIND       PRES   REMARKS
NORFOLK        CLEAR     35  32  88 SW3       30.32F
6HR MIN TEMP:  34; 6HR MAX TEMP:  53;

ALBION         CLEAR     35  32  90 CALM      30.34F
BLAIR          CLEAR     46  35  65 W3        30.33S
COLUMBUS       CLEAR     37  34  89 SW3       30.35S
FREMONT        CLEAR     39  36  86 W5        30.34S
TEKAMAH        CLEAR     39  34  82 W3        30.32S
6HR MIN TEMP:  38; 6HR MAX TEMP:  52;

WAYNE          PTCLDY    35  33  91 S3        30.32S
$$

NEZ050>053-065>068-078-088>093-160700-
SOUTHEAST NEBRASKA

CITY           SKY/WX    TMP DP  RH WIND       PRES   REMARKS
LINCOLN        CLEAR     37  34  89 CALM      30.36F
6HR MIN TEMP:  37; 6HR MAX TEMP:  56;

OMAHA EPPLEY   CLEAR     44  38  79 SE3       30.34S
6HR MIN TEMP:  44; 6HR MAX TEMP:  57;

BEATRICE       CLEAR     39  36  89 CALM      30.37S
FALLS CITY     CLEAR     40  37  89 CALM      30.35S
6HR MIN TEMP:  39; 6HR MAX TEMP:  53;

NEBRASKA CITY  CLEAR     46  37  70 W8        30.34S
PLATTSMOUTH    CLEAR     47  35  62 W6        30.34S
$$

NEZ044-045-051>053-067-160700-
OMAHA AREA

CITY           SKY/WX    TMP DP  RH WIND       PRES   REMARKS
OMAHA EPPLEY   CLEAR     44  38  79 SE3       30.34S
6HR MIN TEMP:  44; 6HR MAX TEMP:  57;

BLAIR          CLEAR     46  35  65 W3        30.33S
FREMONT        CLEAR     39  36  86 W5        30.34S
MILLARD        CLEAR     41  40  95 CALM      30.34S
OFFUTT AFB     CLEAR     39  35  84 CALM      30.33S
PLATTSMOUTH    CLEAR     47  35  62 W6        30.34S
WAHOO          FAIR      40  35  83 W3        30.34F
$$




USA.gov is the U.S. government's official web portal to all federal, state and local government web resources and services.